Tracking 19800 objects as of 23-Jul-2019
HD Live streaming from Space Station
objects crossing your sky now

SL-3 R/B

Track SL-3 R/B now!
10-day predictions


NORAD ID: 11289
Int'l Code: 1979-021B
Perigee: 807.0 km
Apogee: 915.2 km
Inclination: 81.2 °
Period: 102.0 minutes
Semi major axis: 7232 km
RCS: 6.216 m2 (large)
Launch date: March 1, 1979
Source: Commonwealth of Independent States (former USSR) (CIS)
Launch site: PLESETSK MISSILE AND SPACE COMPLEX (PKMTR)

Note: This is a ROCKET BODY
aabbcc
Your satellite tracking list
Your tracking list is empty




NASA's NSSDC Master Catalog

Two Line Element Set (TLE):
1 11289U 79021B   19203.88972973 +.00000029 +00000-0 +88915-5 0  9995
2 11289 081.2478 137.1143 0074790 220.3760 139.1847 14.11591407078607
Source of the keplerian elements: AFSPC